Location: Unspecified
(0.0000°N, 0.0000°E)
Time: 02:22:36
(UTC+00:00)

A-11 Canister half - Visible Passes

Search period start: 27 June 2016 00:00
Search period end: 07 July 2016 00:00
Orbit: 1526 x 1683 km, 47.3° (Epoch: 25 June)

Date Brightness Start Highest point End Pass type
(mag) Time Alt. Az. Time Alt. Az. Time Alt. Az.
27 Jun 9.1 20:11:58 10° NNW 20:21:02 54° NE 20:21:54 53° ENE visible
27 Jun 10.8 22:17:50 10° WNW 22:20:13 18° W 22:20:13 18° W visible
28 Jun 9.2 19:50:30 10° NNW 19:59:28 51° NE 20:01:47 43° E visible
28 Jun 10.5 21:56:04 10° WNW 22:00:07 24° W 22:00:07 24° W visible
29 Jun 9.3 19:29:03 10° NNW 19:37:54 47° NE 19:41:44 33° E visible
29 Jun 10.2 21:34:19 10° WNW 21:40:04 32° W 21:40:04 32° W visible
30 Jun 9.4 19:07:38 10° NNW 19:16:20 44° NE 19:21:43 24° ESE visible
30 Jun 9.8 21:12:35 10° WNW 21:20:03 38° WSW 21:20:03 38° WSW visible
01 Jul 9.5 18:46:13 10° NNW 18:54:46 41° NE 19:01:45 16° ESE visible
01 Jul 9.6 20:50:53 10° WNW 20:59:33 42° SW 21:00:05 42° SW visible
02 Jul 11.0 05:35:24 10° S 05:41:37 18° SE 05:47:44 10° E visible
02 Jul 9.7 18:24:48 10° NNW 18:33:11 38° NE 18:41:44 10° ESE visible
02 Jul 9.6 20:29:11 10° WNW 20:37:59 45° SW 20:40:08 40° SSW visible
03 Jul 11.0 05:14:13 10° S 05:19:57 16° SE 05:25:36 10° E visible
03 Jul 9.5 20:07:31 10° WNW 20:16:24 49° SW 20:20:14 34° S visible
04 Jul 11.0 04:53:06 10° SSE 04:58:17 15° SE 05:03:24 10° ESE visible
04 Jul 9.5 19:45:51 10° NW 19:54:50 52° SW 20:00:20 26° SSE visible
05 Jul 11.1 04:32:04 10° SSE 04:36:36 14° SE 04:41:05 10° ESE visible
05 Jul 9.4 19:24:12 10° NW 19:33:15 56° SW 19:40:27 18° SSE visible
06 Jul 11.1 04:11:11 10° SSE 04:14:55 12° SE 04:18:37 10° ESE visible
06 Jul 9.4 19:02:34 10° NW 19:11:41 60° SW 19:20:35 12° SSE visible
